Location: Milton Keynes
(52.0316°N, 0.7531°W)
Time: 04:31:40
(UTC+00:00)

GENESIS II - Pass Details

Date: 29 January 2019
Orbit: 487 x 544 km, 64.5° (Epoch: 19 February)

Event Time Altitude Azimuth Distance (km) Brightness Sun altitude
Rises 05:07:33 0° 167° (SSE) 2,612 7.9 -24.6°
Reaches altitude 10° 05:10:48 10° 137° (SE) 1,748 7.4 -24.1°
Maximum altitude 05:12:27 12° 112° (ESE) 1,608 7.5 -23.8°
Drops below altitude 10° 05:14:08 10° 86° (E) 1,769 8.0 -23.6°
Sets 05:17:28 0° 57° (ENE) 2,679 8.7 -23.1°
